Location: Brotuna
(46.2000°N, 22.6000°E)
Time: 10:12:30
(UTC+00:00)

Nadezhda 1 Rocket - Pass Details

Date: 09 April 2020
Orbit: 940 x 1006 km, 83.0° (Epoch: 22 May)

Event Time Altitude Azimuth Distance (km) Brightness Sun altitude
Rises 17:31:34 0° 166° (SSE) 3,720 6.7 -4.5°
Reaches altitude 10° 17:34:12 10° 160° (SSE) 2,772 6.0 -5.0°
Maximum altitude 17:40:13 46° 90° (E) 1,326 4.4 -6.0°
Drops below altitude 10° 17:46:12 10° 20° (NNE) 2,763 6.4 -7.0°
Sets 17:48:48 0° 14° (NNE) 3,706 7.1 -7.4°
